Tracking 22458 objects as of 2-Mar-2021
HD Live streaming from Space Station
objects crossing your sky now

CZ-3C DEB

Track CZ-3C DEB now!


NORAD ID: 40868
Int'l Code: 2012-008AJ
Perigee: 1,369.8 km
Apogee: 34,640.2 km
Inclination: 21.3 °
Period: 631.3 minutes
Semi major axis: 24375 km
RCS: Unknown
Launch date: February 24, 2012
Source: People's Republic of China (PRC)
Launch site: Xichang Space Center, China (XSC)

Note: This is SATELLITE DEBRIS
aabbcc
Your satellite tracking list
Your tracking list is empty




NASA's NSSDC Master Catalog

Two Line Element Set (TLE):
1 40868U 12008AJ  21060.81579001  .00000021  00000-0  00000+0 0  9999
2 40868  21.3393 125.5278 6824422 137.5415 302.3974  2.28117905951900
Source of the keplerian elements: AFSPC